�v������,���r���O(���x),�����t���O,���r���O(���x),�����t���O,��1(���x),�����t���O,�������x,�����t���O
12/1/2003 0:00,21.5,1,69.3,1,19.6,1,-6.5,1
12/1/2003 0:15,21.5,1,69.1,1,19.7,1,-7.1,1
12/1/2003 0:30,21.4,1,69,1,19.8,1,-6.6,1
12/1/2003 0:45,21.3,1,69,1,19.9,1,-6.5,1
12/1/2003 1:00,21.2,1,69,1,19.9,1,-6.6,1
12/1/2003 1:15,21.2,1,68.9,1,19.9,1,-6.2,1
12/1/2003 1:30,21.1,1,68.9,1,20,1,-5.6,1
12/1/2003 1:45,21,1,68.9,1,20,1,-6,1
12/1/2003 2:00,21,1,68.9,1,20,1,-6.4,1
12/1/2003 2:15,20.9,1,68.9,1,20,1,-7,1
12/1/2003 2:30,20.8,1,68.9,1,20,1,-7,1
12/1/2003 2:45,20.8,1,68.9,1,20,1,-6.8,1
12/1/2003 3:00,20.7,1,68.8,1,20,1,-6.9,1
12/1/2003 3:15,20.6,1,68.7,1,20,1,-6.7,1
12/1/2003 3:30,20.6,1,68.6,1,20.1,1,-6.8,1
12/1/2003 3:45,20.5,1,68.6,1,20.1,1,-6.6,1
12/1/2003 4:00,20.5,1,68.5,1,20.1,1,-6.3,1
12/1/2003 4:15,20.4,1,68.4,1,20.1,1,-6.7,1
12/1/2003 4:30,20.4,1,68.4,1,20.1,1,-6.3,1
12/1/2003 4:45,20.3,1,68.3,1,20.1,1,-6,1
12/1/2003 5:00,20.2,1,68.2,1,20.1,1,-5.7,1
12/1/2003 5:15,20.2,1,68.3,1,20,1,-6.3,1
12/1/2003 5:30,20.2,1,68.3,1,20,1,-6.2,1
12/1/2003 5:45,20.1,1,68.3,1,20,1,-6,1
12/1/2003 6:00,20.1,1,68.3,1,20,1,-5.3,1
12/1/2003 6:15,20,1,68.3,1,20,1,-5.9,1
12/1/2003 6:30,20,1,68.2,1,19.9,1,-5.8,1
12/1/2003 6:45,20,1,67.9,1,19.9,1,-5.6,1
12/1/2003 7:00,21.8,1,65.8,1,19.8,1,-5.7,1
12/1/2003 7:15,22.3,1,66,1,19.8,1,-6.6,1
12/1/2003 7:30,22.8,1,65.6,1,19.7,1,-6.6,1
12/1/2003 7:45,22.4,1,68.1,1,19.7,1,-6.9,1
12/1/2003 8:00,21.7,1,67.9,1,19.7,1,-6.5,1
12/1/2003 8:15,21.4,1,67.3,1,19.6,1,-6.5,1
12/1/2003 8:30,21.2,1,67.3,1,19.6,1,-6.4,1
12/1/2003 8:45,21,1,67.2,1,19.5,1,-6.6,1
12/1/2003 9:00,20.8,1,67.1,1,19.5,1,-6.8,1
12/1/2003 9:15,20.7,1,67.1,1,19.4,1,-6.6,1
12/1/2003 9:30,20.6,1,67.1,1,19.3,1,-6.5,1
12/1/2003 9:45,20.4,1,66.8,1,19.3,1,-6.1,1
12/1/2003 10:00,20.3,1,67,1,19.2,1,-6.2,1
12/1/2003 10:15,20.2,1,66.9,1,19.1,1,-6.4,1
12/1/2003 10:30,20.1,1,66.8,1,19,1,-6.3,1
12/1/2003 10:45,20,1,66.8,1,18.9,1,-6.3,1
12/1/2003 11:00,19.9,1,66.7,1,18.9,1,-6.1,1
12/1/2003 11:15,19.8,1,66.8,1,18.8,1,-6.2,1
12/1/2003 11:30,19.7,1,66.8,1,18.7,1,-5.9,1
12/1/2003 11:45,19.7,1,66.5,1,18.7,1,-6.2,1
12/1/2003 12:00,19.6,1,66.7,1,18.6,1,-6.2,1
12/1/2003 12:15,19.6,1,66.6,1,18.5,1,-6,1
12/1/2003 12:30,19.4,1,66.6,1,18.5,1,-6,1
12/1/2003 12:45,19.4,1,66.6,1,18.4,1,-5.2,1
12/1/2003 13:00,19.4,1,66.5,1,18.4,1,-6,1
12/1/2003 13:15,19.3,1,66.5,1,18.3,1,-5.8,1
12/1/2003 13:30,19.2,1,66.5,1,18.2,1,-5.4,1
12/1/2003 13:45,19.1,1,66.4,1,18.2,1,-5.9,1
12/1/2003 14:00,19.1,1,66.3,1,18.1,1,-6,1
12/1/2003 14:15,19,1,66.2,1,18,1,-5.4,1
12/1/2003 14:30,19,1,66.1,1,18,1,-5.9,1
12/1/2003 14:45,18.9,1,66.1,1,17.9,1,-5.8,1
12/1/2003 15:00,18.8,1,66.2,1,17.9,1,-5.5,1
12/1/2003 15:15,18.8,1,66.1,1,17.8,1,-5.5,1
12/1/2003 15:30,18.7,1,66.1,1,17.7,1,-5.5,1
12/1/2003 15:45,18.7,1,66.1,1,17.7,1,-5.9,1
12/1/2003 16:00,18.7,1,66.1,1,17.6,1,-5,1
12/1/2003 16:15,18.6,1,66.1,1,17.6,1,-5.1,1
12/1/2003 16:30,18.5,1,66.1,1,17.5,1,-5.8,1
12/1/2003 16:45,18.5,1,66.1,1,17.4,1,-5.8,1
12/1/2003 17:00,18.4,1,66.1,1,17.4,1,-5.4,1
12/1/2003 17:15,18.4,1,65.9,1,17.3,1,-5.6,1
12/1/2003 17:30,18.3,1,65.9,1,17.3,1,-5.7,1
12/1/2003 17:45,18.3,1,66.1,1,17.2,1,-5.3,1
12/1/2003 18:00,18.2,1,65.9,1,17.2,1,-5.1,1
12/1/2003 18:15,18.2,1,66,1,17.1,1,-5,1
12/1/2003 18:30,18.1,1,66,1,17,1,-5.1,1
12/1/2003 18:45,19.8,1,63.8,1,17,1,-5.9,1
12/1/2003 19:00,20.5,1,64,1,17,1,-6.2,1
12/1/2003 19:15,21,1,64.5,1,17,1,-5.7,1
12/1/2003 19:30,21.6,1,62.7,1,17,1,-6.3,1
12/1/2003 19:45,21.9,1,62.2,1,17.1,1,-6.2,1
12/1/2003 20:00,22.1,1,62.7,1,17.1,1,-5.8,1
12/1/2003 20:15,22.4,1,62.5,1,17.2,1,-6.1,1
12/1/2003 20:30,22.9,1,62.2,1,17.4,1,-6,1
12/1/2003 20:45,23.2,1,62.1,1,17.5,1,-6,1
12/1/2003 21:00,23.4,1,61.9,1,17.6,1,-6,1
12/1/2003 21:15,23.5,1,62.1,1,17.8,1,-5.8,1
12/1/2003 21:30,23.8,1,62.2,1,17.9,1,-6.1,1
12/1/2003 21:45,23.5,1,62.8,1,18.1,1,-5.8,1
12/1/2003 22:00,22.4,1,64.9,1,18.2,1,-5.6,1
12/1/2003 22:15,22,1,64.8,1,18.2,1,-5.7,1
12/1/2003 22:30,21.7,1,64.8,1,18.3,1,-5.1,1
12/1/2003 22:45,21.8,1,64.2,1,18.3,1,-5.1,1
12/1/2003 23:00,21.9,1,66.5,1,18.3,1,-5.7,1
12/1/2003 23:15,22,1,64,1,18.3,1,-5.5,1
12/1/2003 23:30,22.2,1,63,1,18.3,1,-5.4,1
12/1/2003 23:45,22.2,1,63,1,18.3,1,-4.7,1
12/2/2003 0:00,22.2,1,66,1,18.3,1,-5.2,1
12/2/2003 0:15,22.3,1,64.1,1,18.2,1,-5.1,1
12/2/2003 0:30,22.3,1,63.4,1,18.2,1,-5.3,1
12/2/2003 0:45,22.3,1,62.9,1,18.1,1,-5.1,1
12/2/2003 1:00,22.4,1,62.4,1,18.1,1,-5,1
12/2/2003 1:15,22.3,1,62.2,1,18.1,1,-4.8,1
12/2/2003 1:30,22.4,1,61.8,1,18.1,1,-5.3,1
12/2/2003 1:45,22,1,62.7,1,18.1,1,-6,1
12/2/2003 2:00,21.7,1,62.7,1,18.1,1,-6.2,1
12/2/2003 2:15,21.5,1,62.5,1,18.1,1,-6.3,1
12/2/2003 2:30,21.3,1,62.4,1,18.1,1,-6.1,1
12/2/2003 2:45,21.1,1,62.3,1,18.2,1,-4.9,1
12/2/2003 3:00,21,1,62.3,1,18.2,1,-4.9,1
12/2/2003 3:15,20.9,1,62.1,1,18.2,1,-4.7,1
12/2/2003 3:30,20.7,1,61.8,1,18.2,1,-5.1,1
12/2/2003 3:45,20.6,1,62,1,18.2,1,-4.7,1
12/2/2003 4:00,20.5,1,61.8,1,18.2,1,-5.4,1
12/2/2003 4:15,20.3,1,61.5,1,18.2,1,-5.8,1
12/2/2003 4:30,20.1,1,61.6,1,18.2,1,-5.9,1
12/2/2003 4:45,20,1,61.8,1,18.2,1,-5.6,1
12/2/2003 5:00,19.9,1,61.7,1,18.2,1,-5.1,1
12/2/2003 5:15,19.9,1,61.7,1,18.2,1,-4.9,1
12/2/2003 5:30,19.8,1,61.6,1,18.2,1,-4.8,1
12/2/2003 5:45,19.7,1,61.6,1,18.2,1,-5.1,1
12/2/2003 6:00,19.6,1,61.6,1,18.1,1,-5,1
12/2/2003 6:15,19.5,1,61.6,1,18.1,1,-4.9,1
12/2/2003 6:30,19.4,1,61.4,1,18,1,-5.1,1
12/2/2003 6:45,19.3,1,61.5,1,18,1,-5,1
12/2/2003 7:00,20.7,1,60.8,1,17.9,1,-5.5,1
12/2/2003 7:15,21.3,1,61.2,1,17.9,1,-4.9,1
12/2/2003 7:30,21.7,1,62.1,1,17.9,1,-5,1
12/2/2003 7:45,22.2,1,62.2,1,18,1,-5.2,1
12/2/2003 8:00,22.7,1,61.7,1,18.1,1,-5.1,1
12/2/2003 8:15,23.1,1,61,1,18.1,1,-5.3,1
12/2/2003 8:30,21.8,1,61.8,1,18.2,1,-5.2,1
12/2/2003 8:45,21.3,1,62.2,1,18.3,1,-5.1,1
12/2/2003 9:00,21.1,1,61.8,1,18.3,1,-4.7,1
12/2/2003 9:15,21.1,1,60.9,1,18.4,1,-3.6,1
12/2/2003 9:30,20.8,1,60.3,1,18.4,1,-5.1,1
12/2/2003 9:45,20.6,1,60.7,1,18.4,1,-4.7,1
12/2/2003 10:00,20.5,1,60.9,1,18.4,1,-4.1,1
12/2/2003 10:15,20.4,1,61.1,1,18.5,1,-3.7,1
12/2/2003 10:30,20.2,1,60.9,1,18.5,1,-3.2,1
12/2/2003 10:45,20.1,1,61,1,18.5,1,-3,1
12/2/2003 11:00,20,1,60.7,1,18.5,1,-3.2,1
12/2/2003 11:15,20,1,60.9,1,18.5,1,-2.9,1
12/2/2003 11:30,19.9,1,60.9,1,18.5,1,-2.8,1
12/2/2003 11:45,19.8,1,60.9,1,18.5,1,-3.8,1
12/2/2003 12:00,19.8,1,61.2,1,18.5,1,-3.6,1
12/2/2003 12:15,19.8,1,61,1,18.4,1,-4.1,1
12/2/2003 12:30,19.7,1,61.5,1,18.4,1,-3.8,1
12/2/2003 12:45,19.8,1,61.6,1,18.4,1,-3.8,1
12/2/2003 13:00,20.6,1,66.7,1,18.4,1,-3.7,1
12/2/2003 13:15,20,1,61.7,1,18.4,1,-3.6,1
12/2/2003 13:30,19.9,1,59.5,1,18.3,1,-5.2,1
12/2/2003 13:45,19.8,1,58.3,1,18.3,1,-5.7,1
12/2/2003 14:00,19.8,1,57.9,1,18.3,1,-5.7,1
12/2/2003 14:15,20,1,62.6,1,18.3,1,-4.5,1
12/2/2003 14:30,20.1,1,64.3,1,18.3,1,-4.7,1
12/2/2003 14:45,20,1,61.9,1,18.3,1,-4.4,1
12/2/2003 15:00,20,1,60.1,1,18.3,1,-4.7,1
12/2/2003 15:15,19.8,1,59.4,1,18.3,1,-4.8,1
12/2/2003 15:30,19.8,1,58.9,1,18.3,1,-4.7,1
12/2/2003 15:45,19.7,1,58.7,1,18.3,1,-4.7,1
12/2/2003 16:00,19.6,1,58.2,1,18.3,1,-4.5,1
12/2/2003 16:15,19.5,1,57.8,1,18.3,1,-4.2,1
12/2/2003 16:30,19.5,1,57.2,1,18.2,1,-4.4,1
12/2/2003 16:45,19.4,1,56.7,1,18.2,1,-4.4,1
12/2/2003 17:00,19.4,1,56.3,1,18.2,1,-4.1,1
12/2/2003 17:15,19.3,1,56.2,1,18.1,1,-4,1
12/2/2003 17:30,19.2,1,56.2,1,18.1,1,-4,1
12/2/2003 17:45,19.2,1,55.7,1,18.1,1,-4.3,1
12/2/2003 18:00,19.1,1,56,1,18,1,-4.2,1
12/2/2003 18:15,19,1,55.5,1,18,1,-3.7,1
12/2/2003 18:30,19,1,54,1,17.9,1,-4.2,1
12/2/2003 18:45,19,1,54.2,1,17.8,1,-3.9,1
12/2/2003 19:00,19.1,1,54.9,1,17.8,1,-3.9,1
12/2/2003 19:15,19.1,1,55,1,17.7,1,-4,1
12/2/2003 19:30,19.2,1,55.7,1,17.7,1,-5.1,1
12/2/2003 19:45,19.6,1,56.9,1,17.6,1,-5,1
12/2/2003 20:00,20.3,1,54.2,1,17.5,1,-5,1
12/2/2003 20:15,21,1,53.9,1,17.5,1,-4.6,1
12/2/2003 20:30,21.6,1,55.5,1,17.5,1,-4.5,1
12/2/2003 20:45,21.8,1,57,1,17.5,1,-4.9,1
12/2/2003 21:00,22.6,1,58.9,1,17.6,1,-5.1,1
12/2/2003 21:15,22.6,1,64.4,1,17.7,1,-4.4,1
12/2/2003 21:30,21.9,1,63.2,1,17.9,1,-4.5,1
12/2/2003 21:45,21.8,1,66,1,18,1,-4.4,1
12/2/2003 22:00,21.5,1,62.7,1,18,1,-4.4,1
12/2/2003 22:15,21.4,1,61.7,1,18.1,1,-4.8,1
12/2/2003 22:30,21.1,1,61,1,18.1,1,-4.4,1
12/2/2003 22:45,21,1,60.6,1,18.2,1,-3.9,1
12/2/2003 23:00,20.8,1,60.1,1,18.3,1,-4.7,1
12/2/2003 23:15,20.6,1,59.8,1,18.3,1,-4.6,1
12/2/2003 23:30,20.5,1,59.3,1,18.4,1,-4.7,1
12/2/2003 23:45,20.3,1,59,1,18.5,1,-4.7,1
12/3/2003 0:00,20.1,1,58.7,1,18.5,1,-4.6,1
12/3/2003 0:15,20.1,1,58.6,1,18.5,1,-4.5,1
12/3/2003 0:30,19.9,1,58.5,1,18.5,1,-4.5,1
12/3/2003 0:45,19.8,1,58.5,1,18.5,1,-4.5,1
12/3/2003 1:00,19.7,1,58.1,1,18.5,1,-4.4,1
12/3/2003 1:15,19.6,1,58,1,18.5,1,-4.8,1
12/3/2003 1:30,19.5,1,57.9,1,18.5,1,-4.5,1
12/3/2003 1:45,19.4,1,58.1,1,18.5,1,-4.5,1
12/3/2003 2:00,19.4,1,57.9,1,18.5,1,-4.6,1
12/3/2003 2:15,19.3,1,57.9,1,18.5,1,-4.4,1
12/3/2003 2:30,19.1,1,57.8,1,18.5,1,-4,1
12/3/2003 2:45,19.1,1,58.3,1,18.5,1,-4.4,1
12/3/2003 3:00,19,1,57.6,1,18.4,1,-4.5,1
12/3/2003 3:15,18.9,1,57.8,1,18.4,1,-4.4,1
12/3/2003 3:30,18.8,1,57.7,1,18.4,1,-4.2,1
12/3/2003 3:45,18.7,1,57.7,1,18.3,1,-4.5,1
12/3/2003 4:00,18.6,1,57.9,1,18.3,1,-5.1,1
12/3/2003 4:15,18.5,1,57.8,1,18.2,1,-4.8,1
12/3/2003 4:30,18.5,1,57.8,1,18.2,1,-4.6,1
12/3/2003 4:45,18.3,1,58,1,18.1,1,-4.6,1
12/3/2003 5:00,18.2,1,58,1,18,1,-4.7,1
12/3/2003 5:15,18.2,1,58,1,18,1,-4.8,1
12/3/2003 5:30,18.1,1,58,1,17.9,1,-4.5,1
12/3/2003 5:45,18.1,1,58.1,1,17.8,1,-4.4,1
12/3/2003 6:00,18,1,57.9,1,17.7,1,-4.3,1
12/3/2003 6:15,17.9,1,57.7,1,17.7,1,-4.4,1
12/3/2003 6:30,17.8,1,58,1,17.6,1,-4.3,1
12/3/2003 6:45,17.7,1,57.9,1,17.6,1,-4.2,1
12/3/2003 7:00,17.6,1,57.9,1,17.6,1,-4.2,1
12/3/2003 7:15,17.5,1,57.9,1,17.5,1,-4.1,1
12/3/2003 7:30,17.5,1,57.9,1,17.5,1,-4.2,1
12/3/2003 7:45,17.4,1,58,1,17.4,1,-4.1,1
12/3/2003 8:00,17.3,1,58,1,17.3,1,-4.1,1
12/3/2003 8:15,17.2,1,58.1,1,17.3,1,-3.9,1
12/3/2003 8:30,18.1,1,58.3,1,17.3,1,-4,1
12/3/2003 8:45,18.8,1,58.9,1,17.3,1,-5.2,1
12/3/2003 9:00,19.4,1,59.3,1,17.3,1,-5.1,1
12/3/2003 9:15,19.8,1,59.6,1,17.2,1,-5.1,1
12/3/2003 9:30,19.8,1,61.2,1,17.3,1,-5.1,1
12/3/2003 9:45,19,1,59.1,1,17.3,1,-5.2,1
12/3/2003 10:00,18.9,1,59.3,1,17.3,1,-3.7,1
12/3/2003 10:15,18.9,1,59.8,1,17.3,1,-3.9,1
12/3/2003 10:30,18.7,1,60.1,1,17.3,1,-4,1
12/3/2003 10:45,18.6,1,60.2,1,17.3,1,-3.9,1
12/3/2003 11:00,18.5,1,60.3,1,17.3,1,-4.2,1
12/3/2003 11:15,18.4,1,58,1,17.3,1,-4.4,1
12/3/2003 11:30,18.3,1,58.4,1,17.2,1,-4.3,1
12/3/2003 11:45,18.2,1,58.5,1,17.2,1,-3.8,1
12/3/2003 12:00,18.1,1,58.4,1,17.1,1,-3.9,1
12/3/2003 12:15,18.1,1,58,1,17.1,1,-3.9,1
12/3/2003 12:30,18,1,58.2,1,17,1,-4,1
12/3/2003 12:45,17.9,1,57.7,1,17,1,-3.7,1
12/3/2003 13:00,17.9,1,57.9,1,16.9,1,-3.6,1
12/3/2003 13:15,17.9,1,57.9,1,16.8,1,-3.4,1
12/3/2003 13:30,17.8,1,57.8,1,16.8,1,-3.6,1
12/3/2003 13:45,17.8,1,57.8,1,16.7,1,-3.3,1
12/3/2003 14:00,17.7,1,57.6,1,16.7,1,-3.3,1
12/3/2003 14:15,17.7,1,57.6,1,16.7,1,-3.9,1
12/3/2003 14:30,17.7,1,57.6,1,16.6,1,-4.1,1
12/3/2003 14:45,17.6,1,57.4,1,16.6,1,-2.9,1
12/3/2003 15:00,17.6,1,57.4,1,16.5,1,-3.7,1
12/3/2003 15:15,17.5,1,57.3,1,16.5,1,-4,1
12/3/2003 15:30,17.5,1,57.4,1,16.5,1,-3.6,1
12/3/2003 15:45,17.5,1,57.6,1,16.4,1,-3.6,1
12/3/2003 16:00,17.4,1,57,1,16.4,1,-3.4,1
12/3/2003 16:15,17.4,1,57,1,16.4,1,-3.4,1
12/3/2003 16:30,17.4,1,57.1,1,16.3,1,-3.3,1
12/3/2003 16:45,17.3,1,57,1,16.3,1,-3,1
12/3/2003 17:00,17.3,1,57.1,1,16.2,1,-2.9,1
12/3/2003 17:15,17.3,1,57.1,1,16.2,1,-2.9,1
12/3/2003 17:30,17.2,1,57.1,1,16.1,1,-2.8,1
12/3/2003 17:45,17.2,1,57.2,1,16,1,-3,1
12/3/2003 18:00,17.2,1,57.1,1,16,1,-3,1
12/3/2003 18:15,17.1,1,57.3,1,15.9,1,-3,1
12/3/2003 18:30,17,1,57.2,1,15.8,1,-2.9,1
12/3/2003 18:45,17,1,57.2,1,15.8,1,-3,1
12/3/2003 19:00,16.9,1,57.2,1,15.7,1,-2.4,1
12/3/2003 19:15,17.2,1,57.2,1,15.6,1,-0.9,1
12/3/2003 19:30,18.8,1,65.9,1,15.6,1,-1.9,1
12/3/2003 19:45,19.2,1,60.7,1,15.5,1,-1.9,1
12/3/2003 20:00,19.8,1,58.5,1,15.5,1,-1.9,1
12/3/2003 20:15,20.1,1,59.8,1,15.6,1,-1.5,1
12/3/2003 20:30,19.9,1,59.9,1,15.7,1,-1.8,1
12/3/2003 20:45,19.5,1,61.1,1,15.8,1,-1.4,1
12/3/2003 21:00,19.3,1,60.6,1,15.9,1,2.7,1
12/3/2003 21:15,19.2,1,59.9,1,15.9,1,0.7,1
12/3/2003 21:30,19.1,1,61.3,1,15.9,1,0.3,1
12/3/2003 21:45,19.5,1,65.6,1,15.9,1,0.6,1
12/3/2003 22:00,20.4,1,62.7,1,15.9,1,0.7,1
12/3/2003 22:15,20.6,1,62.5,1,16,1,1.9,1
12/3/2003 22:30,20.4,1,62.5,1,16.1,1,1,1
12/3/2003 22:45,19.7,1,62.8,1,16.2,1,1.9,1
12/3/2003 23:00,19.4,1,61.9,1,16.3,1,2.1,1
12/3/2003 23:15,19.2,1,61,1,16.3,1,2,1
12/3/2003 23:30,19,1,60.9,1,16.4,1,2,1
12/3/2003 23:45,18.9,1,60.4,1,16.5,1,2.3,1
12/4/2003 0:00,18.7,1,59.9,1,16.5,1,1.8,1
12/4/2003 0:15,18.6,1,59.6,1,16.6,1,1.9,1
12/4/2003 0:30,18.4,1,59.4,1,16.6,1,1.9,1
12/4/2003 0:45,18.2,1,59.4,1,16.6,1,2,1
12/4/2003 1:00,18.1,1,59.2,1,16.6,1,2,1
12/4/2003 1:15,17.9,1,59,1,16.6,1,2.4,1
12/4/2003 1:30,17.8,1,58.9,1,16.6,1,2.6,1
12/4/2003 1:45,17.7,1,58.8,1,16.6,1,3,1
12/4/2003 2:00,17.5,1,58.5,1,16.5,1,3,1
12/4/2003 2:15,17.4,1,58.4,1,16.5,1,3.5,1
12/4/2003 2:30,17.2,1,58.5,1,16.4,1,0.3,1
12/4/2003 2:45,17.2,1,58.3,1,16.4,1,0.9,1
12/4/2003 3:00,17,1,58.3,1,16.3,1,1.1,1
12/4/2003 3:15,16.9,1,58.3,1,16.3,1,1.3,1
12/4/2003 3:30,16.8,1,58.2,1,16.2,1,1.3,1
12/4/2003 3:45,16.6,1,58.2,1,16.1,1,0.9,1
12/4/2003 4:00,16.5,1,58.3,1,16.1,1,0.7,1
12/4/2003 4:15,16.4,1,58.1,1,16,1,0.5,1
12/4/2003 4:30,16.3,1,58.1,1,15.9,1,0.7,1
12/4/2003 4:45,16.1,1,58.2,1,15.8,1,1,1
12/4/2003 5:00,16,1,58.2,1,15.7,1,0.9,1
12/4/2003 5:15,16,1,58.1,1,15.6,1,1.3,1
12/4/2003 5:30,15.9,1,58,1,15.6,1,3.8,1
12/4/2003 5:45,15.8,1,58.1,1,15.5,1,3.8,1
12/4/2003 6:00,15.7,1,58.1,1,15.5,1,4.1,1
12/4/2003 6:15,15.5,1,58.1,1,15.4,1,4,1
12/4/2003 6:30,16.7,1,58.9,1,15.3,1,4.1,1
12/4/2003 6:45,17.3,1,59.6,1,15.2,1,3,1
12/4/2003 7:00,17.7,1,59.8,1,15.2,1,2.7,1
12/4/2003 7:15,18.2,1,60.4,1,15.1,1,2.6,1
12/4/2003 7:30,18.5,1,60.4,1,15,1,3.1,1
12/4/2003 7:45,18.7,1,61.3,1,15,1,3.3,1
12/4/2003 8:00,19.2,1,61.4,1,14.9,1,3.5,1
12/4/2003 8:15,19.3,1,60.9,1,15,1,3.9,1
12/4/2003 8:30,18.2,1,61.7,1,15,1,4.3,1
12/4/2003 8:45,17.9,1,60.9,1,15.1,1,4.4,1
12/4/2003 9:00,17.6,1,60.5,1,15.1,1,4.7,1
12/4/2003 9:15,17.5,1,60.1,1,15.1,1,4.8,1
12/4/2003 9:30,17.2,1,59.5,1,15.2,1,5,1
12/4/2003 9:45,17.1,1,59.6,1,15.2,1,5.4,1
12/4/2003 10:00,17,1,59,1,15.2,1,5.5,1
12/4/2003 10:15,16.9,1,59.1,1,15.2,1,5.8,1
12/4/2003 10:30,16.8,1,58.9,1,15.2,1,5.8,1
12/4/2003 10:45,16.7,1,59,1,15.2,1,5.4,1
12/4/2003 11:00,16.6,1,58.7,1,15.2,1,5.2,1
12/4/2003 11:15,16.6,1,59,1,15.2,1,5.9,1
12/4/2003 11:30,16.5,1,58.7,1,15.2,1,5.9,1
12/4/2003 11:45,16.4,1,58.5,1,15.1,1,5.9,1
12/4/2003 12:00,16.4,1,58.8,1,15.1,1,6.2,1
12/4/2003 12:15,16.4,1,58.5,1,15.1,1,6.3,1
12/4/2003 12:30,16.3,1,58.6,1,15.1,1,6.6,1
12/4/2003 12:45,16.3,1,58.3,1,15.1,1,6.8,1
12/4/2003 13:00,16.3,1,58.6,1,15.1,1,6.8,1
12/4/2003 13:15,16.3,1,58.6,1,15.1,1,6.8,1
12/4/2003 13:30,16.2,1,58.5,1,15,1,6.9,1
12/4/2003 13:45,16.2,1,58.3,1,15,1,7,1
12/4/2003 14:00,16.2,1,58.2,1,15,1,7,1
12/4/2003 14:15,16.2,1,58.3,1,15,1,7,1
12/4/2003 14:30,16.2,1,58.2,1,15.1,1,6.9,1
12/4/2003 14:45,16.2,1,58,1,15,1,7,1
12/4/2003 15:00,16.2,1,58,1,15,1,7,1
12/4/2003 15:15,16.2,1,57.9,1,15,1,7.3,1
12/4/2003 15:30,16.2,1,57.7,1,15,1,7.5,1
12/4/2003 15:45,16.2,1,57.7,1,15,1,7.5,1
12/4/2003 16:00,16.2,1,57.5,1,15,1,7.4,1
12/4/2003 16:15,16.1,1,57.6,1,15,1,7.3,1
12/4/2003 16:30,16.1,1,57.3,1,15,1,7.6,1
12/4/2003 16:45,16.1,1,57.2,1,15,1,7.7,1
12/4/2003 17:00,16.1,1,57.3,1,15,1,7.7,1
12/4/2003 17:15,16.1,1,57.2,1,15,1,7.9,1
12/4/2003 17:30,16,1,57.2,1,15,1,7.9,1
12/4/2003 17:45,16,1,57.2,1,14.9,1,8,1
12/4/2003 18:00,16,1,57,1,14.9,1,8,1
12/4/2003 18:15,15.9,1,56.8,1,14.9,1,8,1
12/4/2003 18:30,17.5,1,56,1,14.8,1,8,1
12/4/2003 18:45,18.1,1,56.5,1,14.8,1,8.1,1
12/4/2003 19:00,18.8,1,55.7,1,14.9,1,8.1,1
12/4/2003 19:15,19.2,1,55.9,1,14.9,1,8.2,1
12/4/2003 19:30,19.6,1,55.3,1,14.9,1,8.2,1
12/4/2003 19:45,19.8,1,55.8,1,15,1,8.3,1
12/4/2003 20:00,20.1,1,56.5,1,15.1,1,8.4,1
12/4/2003 20:15,20.6,1,56.8,1,15.2,1,8.4,1
12/4/2003 20:30,21,1,57.4,1,15.4,1,8.5,1
12/4/2003 20:45,21.4,1,58,1,15.5,1,8.4,1
12/4/2003 21:00,21.5,1,59.1,1,15.7,1,8.4,1
12/4/2003 21:15,21.8,1,60.8,1,15.9,1,8.5,1
12/4/2003 21:30,22,1,59.9,1,16.1,1,8.5,1
12/4/2003 21:45,20.8,1,62.2,1,16.3,1,8.5,1
12/4/2003 22:00,20.9,1,63,1,16.4,1,8.6,1
12/4/2003 22:15,21.3,1,60.8,1,16.5,1,8.7,1
12/4/2003 22:30,20.4,1,61,1,16.5,1,8.7,1
12/4/2003 22:45,20.1,1,59.7,1,16.6,1,8.6,1
12/4/2003 23:00,19.8,1,58.9,1,16.6,1,8.8,1
12/4/2003 23:15,19.5,1,57.9,1,16.5,1,8.9,1
12/4/2003 23:30,19.4,1,57.7,1,16.5,1,8.9,1
12/4/2003 23:45,19.2,1,57.2,1,16.4,1,9,1
12/5/2003 0:00,19,1,56.4,1,16.4,1,9.1,1
12/5/2003 0:15,19.3,1,58.1,1,16.3,1,9.2,1
12/5/2003 0:30,19.7,1,55.5,1,16.2,1,9.1,1
12/5/2003 0:45,20.7,1,53.8,1,16.1,1,9.1,1
12/5/2003 1:00,21,1,53.1,1,16.1,1,9.1,1
12/5/2003 1:15,21,1,53.2,1,16,1,9.2,1
12/5/2003 1:30,21.1,1,52.8,1,16,1,9.2,1
12/5/2003 1:45,21.3,1,52.3,1,15.9,1,9.3,1
12/5/2003 2:00,21.3,1,52.1,1,15.8,1,9.4,1
12/5/2003 2:15,21.4,1,51.9,1,15.7,1,9.4,1
12/5/2003 2:30,21.4,1,51.6,1,15.6,1,9.4,1
12/5/2003 2:45,21.5,1,51.3,1,15.5,1,9.4,1
12/5/2003 3:00,21.5,1,51,1,15.4,1,9.4,1
12/5/2003 3:15,21.6,1,50.4,1,15.3,1,9.5,1
12/5/2003 3:30,21.7,1,50.1,1,15.2,1,9.4,1
12/5/2003 3:45,21.7,1,49.8,1,15.1,1,9.5,1
12/5/2003 4:00,21.6,1,50.1,1,15.1,1,9.6,1
12/5/2003 4:15,20.7,1,51.8,1,15,1,9.6,1
12/5/2003 4:30,20.3,1,51.7,1,15,1,9.7,1
12/5/2003 4:45,20,1,51.4,1,15,1,9.8,1
12/5/2003 5:00,19.8,1,51.8,1,15.1,1,9.8,1
12/5/2003 5:15,19.6,1,51.7,1,15.1,1,9.9,1
12/5/2003 5:30,19.3,1,51.8,1,15.2,1,9.9,1
12/5/2003 5:45,19.1,1,51.9,1,15.3,1,9.9,1
12/5/2003 6:00,18.9,1,52,1,15.3,1,9.8,1
12/5/2003 6:15,18.7,1,52.3,1,15.4,1,9.9,1
12/5/2003 6:30,19.5,1,53.1,1,15.4,1,9.9,1
12/5/2003 6:45,19.9,1,53.6,1,15.4,1,9.8,1
12/5/2003 7:00,20.2,1,54.3,1,15.4,1,7.9,1
12/5/2003 7:15,20.2,1,53.9,1,15.5,1,7.4,1
12/5/2003 7:30,20.7,1,54.5,1,15.5,1,7.5,1
12/5/2003 7:45,21,1,54.8,1,15.5,1,7.6,1
12/5/2003 8:00,21.2,1,55.1,1,15.6,1,7.6,1
12/5/2003 8:15,21.4,1,56.1,1,15.7,1,7.2,1
12/5/2003 8:30,20.1,1,56.4,1,15.7,1,7.3,1
12/5/2003 8:45,19.7,1,55.7,1,15.7,1,7.4,1
12/5/2003 9:00,19.4,1,55.1,1,15.7,1,7.4,1
12/5/2003 9:15,19.2,1,54.5,1,15.7,1,7.5,1
12/5/2003 9:30,19,1,54.3,1,15.6,1,7.6,1
12/5/2003 9:45,18.8,1,53.8,1,15.5,1,7.7,1
12/5/2003 10:00,18.6,1,53.5,1,15.4,1,7.7,1
12/5/2003 10:15,18.4,1,53.3,1,15.4,1,7.7,1
12/5/2003 10:30,18.2,1,53.9,1,15.3,1,7.9,1
12/5/2003 10:45,18.1,1,53.9,1,15.2,1,7.9,1
12/5/2003 11:00,18,1,54,1,15.1,1,8,1
12/5/2003 11:15,17.9,1,53.9,1,15,1,8.1,1
12/5/2003 11:30,17.8,1,53.9,1,14.9,1,8.2,1
12/5/2003 11:45,17.6,1,53.7,1,14.9,1,8.2,1
12/5/2003 12:00,17.5,1,53.8,1,14.8,1,8.3,1
12/5/2003 12:15,17.5,1,53.8,1,14.7,1,8.3,1
12/5/2003 12:30,17.3,1,53.5,1,14.7,1,8.3,1
12/5/2003 12:45,17.2,1,53.8,1,14.6,1,8.4,1
12/5/2003 13:00,17.1,1,53.7,1,14.6,1,8.5,1
12/5/2003 13:15,17,1,53.7,1,14.5,1,8.5,1
12/5/2003 13:30,17,1,53.7,1,14.5,1,8.6,1
12/5/2003 13:45,16.8,1,53.5,1,14.4,1,8.6,1
12/5/2003 14:00,16.7,1,53.7,1,14.4,1,8.6,1
12/5/2003 14:15,16.7,1,53.7,1,14.3,1,8.6,1
12/5/2003 14:30,16.6,1,53.9,1,14.3,1,8.7,1
12/5/2003 14:45,16.5,1,53.9,1,14.3,1,8.7,1
12/5/2003 15:00,16.4,1,54.1,1,14.2,1,8.7,1
12/5/2003 15:15,16.4,1,54.2,1,14.2,1,8.7,1
12/5/2003 15:30,16.3,1,54.2,1,14.1,1,8.7,1
12/5/2003 15:45,16.3,1,54.3,1,14.1,1,8.8,1
12/5/2003 16:00,16.2,1,54.2,1,14,1,8.8,1
12/5/2003 16:15,16.1,1,54.5,1,14,1,8.8,1
12/5/2003 16:30,16,1,54.4,1,13.9,1,8.9,1
12/5/2003 16:45,16,1,54.6,1,13.9,1,8.8,1
12/5/2003 17:00,15.9,1,54.6,1,13.9,1,8.8,1
12/5/2003 17:15,15.8,1,54.7,1,13.8,1,8.9,1
12/5/2003 17:30,15.7,1,54.8,1,13.8,1,8.9,1
12/5/2003 17:45,15.7,1,54.8,1,13.7,1,9,1
12/5/2003 18:00,15.6,1,54.8,1,13.7,1,9,1
12/5/2003 18:15,15.5,1,55,1,13.6,1,9,1
12/5/2003 18:30,15.5,1,54.8,1,13.6,1,9,1
12/5/2003 18:45,16.7,1,54.9,1,13.5,1,7.5,1
12/5/2003 19:00,17.2,1,58.6,1,13.5,1,7.6,1
12/5/2003 19:15,17.8,1,56.1,1,13.5,1,7.3,1
12/5/2003 19:30,18,1,61.7,1,13.6,1,7.3,1
12/5/2003 19:45,18.6,1,59.6,1,13.6,1,7.3,1
12/5/2003 20:00,18.9,1,58.6,1,13.8,1,7.4,1
12/5/2003 20:15,19.2,1,58.9,1,13.9,1,7.7,1
12/5/2003 20:30,19.4,1,59,1,14.1,1,7.6,1
12/5/2003 20:45,19.7,1,58.9,1,14.2,1,7.7,1
12/5/2003 21:00,20.2,1,59.2,1,14.4,1,7.7,1
12/5/2003 21:15,19.5,1,60.1,1,14.5,1,7.8,1
12/5/2003 21:30,19,1,62.1,1,14.7,1,7.9,1
12/5/2003 21:45,19.5,1,65.5,1,14.7,1,7.9,1
12/5/2003 22:00,19.2,1,64.8,1,14.8,1,8,1
12/5/2003 22:15,19,1,63,1,14.9,1,8,1
12/5/2003 22:30,18.7,1,61.6,1,14.9,1,8.1,1
12/5/2003 22:45,18.9,1,61.3,1,14.9,1,8.1,1
12/5/2003 23:00,19.8,1,63,1,14.9,1,8.2,1
12/5/2003 23:15,20.7,1,56.5,1,14.9,1,8.2,1
12/5/2003 23:30,21.2,1,56,1,14.9,1,8.4,1
12/5/2003 23:45,21.5,1,55.2,1,14.8,1,8.4,1
12/6/2003 0:00,21.6,1,54.5,1,14.8,1,8.4,1
12/6/2003 0:15,20.5,1,57.4,1,14.8,1,7.4,1
12/6/2003 0:30,20.1,1,56.7,1,14.7,1,7.3,1
12/6/2003 0:45,19.8,1,56.6,1,14.8,1,7.6,1
12/6/2003 1:00,19.6,1,55.7,1,14.8,1,7.7,1
12/6/2003 1:15,19.4,1,55.8,1,14.9,1,7.7,1
12/6/2003 1:30,19.1,1,55.6,1,14.9,1,7.8,1
12/6/2003 1:45,18.9,1,55.3,1,15.1,1,7.8,1
12/6/2003 2:00,18.8,1,55.6,1,15.2,1,7.9,1
12/6/2003 2:15,18.7,1,55.1,1,15.3,1,8,1
12/6/2003 2:30,18.5,1,55.5,1,15.4,1,8.1,1
12/6/2003 2:45,18.4,1,55.4,1,15.4,1,8.1,1
12/6/2003 3:00,18.2,1,55.4,1,15.5,1,8.1,1
12/6/2003 3:15,18.1,1,55.1,1,15.5,1,8.2,1
12/6/2003 3:30,18,1,55.2,1,15.5,1,8.3,1
12/6/2003 3:45,17.8,1,55.2,1,15.5,1,8.3,1
12/6/2003 4:00,17.7,1,55.2,1,15.5,1,8.4,1
12/6/2003 4:15,17.6,1,55.3,1,15.5,1,8.4,1
12/6/2003 4:30,17.5,1,55.2,1,15.5,1,8.5,1
12/6/2003 4:45,17.4,1,55.3,1,15.5,1,8.5,1
12/6/2003 5:00,17.2,1,55.3,1,15.5,1,8.5,1
12/6/2003 5:15,17.1,1,55.1,1,15.5,1,8.7,1
12/6/2003 5:30,17,1,55.1,1,15.5,1,8.7,1
12/6/2003 5:45,16.9,1,55.2,1,15.5,1,8.7,1
12/6/2003 6:00,16.8,1,55.2,1,15.5,1,8.7,1
12/6/2003 6:15,16.7,1,55.3,1,15.5,1,8.8,1
12/6/2003 6:30,17.9,1,55.7,1,15.5,1,8.8,1
12/6/2003 6:45,18.6,1,56.2,1,15.4,1,7.4,1
12/6/2003 7:00,18.9,1,57.2,1,15.4,1,7.4,1
12/6/2003 7:15,19.3,1,57.3,1,15.4,1,7.5,1
12/6/2003 7:30,19.7,1,57.5,1,15.4,1,7.1,1
12/6/2003 7:45,20,1,57.9,1,15.4,1,7.1,1
12/6/2003 8:00,20.4,1,58.3,1,15.5,1,7.3,1
12/6/2003 8:15,19.9,1,58.4,1,15.5,1,7.3,1
12/6/2003 8:30,19.1,1,58.3,1,15.5,1,7.3,1
12/6/2003 8:45,18.8,1,57.8,1,15.5,1,7.5,1
12/6/2003 9:00,18.5,1,57.3,1,15.5,1,7.5,1
12/6/2003 9:15,18.3,1,56.8,1,15.4,1,7.6,1
12/6/2003 9:30,18.1,1,56.5,1,15.4,1,7.7,1
12/6/2003 9:45,17.9,1,56.3,1,15.3,1,7.7,1
12/6/2003 10:00,17.8,1,56.3,1,15.2,1,7.8,1
12/6/2003 10:15,17.7,1,56.3,1,15.1,1,7.8,1
12/6/2003 10:30,17.5,1,56.1,1,15.1,1,7.8,1
12/6/2003 10:45,17.4,1,56.3,1,15,1,7.9,1
12/6/2003 11:00,17.3,1,56,1,14.9,1,8,1
12/6/2003 11:15,17.2,1,56.5,1,14.9,1,8,1
12/6/2003 11:30,17.1,1,56.4,1,14.8,1,8.1,1
12/6/2003 11:45,16.9,1,56.5,1,14.8,1,8.1,1
12/6/2003 12:00,16.9,1,56.6,1,14.7,1,8.2,1
12/6/2003 12:15,16.8,1,56.5,1,14.7,1,8.2,1
12/6/2003 12:30,16.7,1,56.6,1,14.7,1,8.3,1
12/6/2003 12:45,16.7,1,56.7,1,14.7,1,8.3,1
12/6/2003 13:00,16.6,1,56.8,1,14.6,1,8.4,1
12/6/2003 13:15,16.6,1,56.9,1,14.6,1,8.4,1
12/6/2003 13:30,16.5,1,56.9,1,14.6,1,8.5,1
12/6/2003 13:45,16.5,1,57,1,14.6,1,8.5,1
12/6/2003 14:00,16.4,1,57.1,1,14.5,1,8.5,1
12/6/2003 14:15,16.4,1,57.3,1,14.5,1,8.5,1
12/6/2003 14:30,16.3,1,57.3,1,14.5,1,8.6,1
12/6/2003 14:45,16.3,1,57.4,1,14.5,1,8.6,1
12/6/2003 15:00,16.3,1,57.5,1,14.5,1,8.7,1
12/6/2003 15:15,16.2,1,57.5,1,14.4,1,8.7,1
12/6/2003 15:30,16.2,1,57.6,1,14.4,1,8.7,1
12/6/2003 15:45,16.2,1,57.7,1,14.4,1,8.8,1
12/6/2003 16:00,16.1,1,57.7,1,14.4,1,8.8,1
12/6/2003 16:15,16.1,1,57.8,1,14.4,1,8.9,1
12/6/2003 16:30,16,1,58,1,14.4,1,8.9,1
12/6/2003 16:45,16,1,58.1,1,14.4,1,8.9,1
12/6/2003 17:00,16,1,58.2,1,14.3,1,9,1
12/6/2003 17:15,16,1,58.3,1,14.3,1,9,1
12/6/2003 17:30,16,1,58.3,1,14.3,1,8.9,1
12/6/2003 17:45,15.9,1,58.2,1,14.3,1,9,1
12/6/2003 18:00,15.9,1,58.2,1,14.2,1,8.9,1
12/6/2003 18:15,15.8,1,58.3,1,14.2,1,8.9,1